Weather in Garda

Italy     45°34′51″N   10°43′04″E
temp.,
°C
wind,
m/s
gust,
m/s
humid.,
%
clouds,
%
prec.,
mm/h
press.,
hPa
HPBL,
m
20 january, wed
wed2001:00+4wsw126499 0.0 1024263
04:00+4sse336762 0.0 1022224
07:00+3sse117381 0.1 1023193
10:00+4s1168100 0.2 1023266
13:00+4ssw228399 0.6 1022191
16:00+3sw2291100 0.8 1020166
19:00+4sw1191100 1.4 1021128
22:00+4s2294100 0.4 1020150
21 january, thu
thu2101:00+4ssw2294100 0.4 1019135
04:00+4ssw229399 0.0 1017145
07:00+4sse2194100 0.0 1017110
10:00+4s1194100 0.6 1017118
13:00+5s2294100 2.0 1015117
16:00+5sse1195100 1.3 1014139
19:00+5sse2295100 2.9 1014135
22:00+5sse1195100 1.9 101199
22 january, fri
fri2201:00+6ese2390100 2.3 1009163
04:00+6nnw2296100 5.8 1005130
07:00+7e2393100 9.4 1005162
10:00+8wsw119080 0.6 1004120
13:00+9ssw118775 0.8 1002183
16:00+8se2394100 1.2 999141
19:00+10ne6889100 7.8 996300
22:00+10ne71182100 3.0 993505
23 january, sat
sat2301:00+8ne5687100 11.3 990232
04:00+9e5884100 4.3 988710
07:00+8ne4685100 8.9 990520
10:00+8n2376100 2.4 990240
13:00+8wnw4585100 3.2 991440
16:00+7w3491100 2.8 991369
19:00+7nne4481100 3.9 993203
22:00+7ssw1180100 0.1 995192
24 january, sun
sun2401:00+5se229071 0.1 997171
04:00+5ne228059 0.0 998213
07:00+5ne118251 0.0 1000251
10:00+6ne227379 0.0 1001331
13:00+7ene126289 0.0 1000586
16:00+6wsw0163100 0.0 1000357
19:00+6wnw1259100 0.0 1002410
22:00+5wnw3466100 0.0 1001432